Location: Palau
(42.3086°N, 3.1507°E)
Time: 04:33:43
(UTC+00:00)

ATLAS 3B R/B - Pass Details

Date: 26 May 2020
Orbit: 1024 x 1171 km, 63.8° (Epoch: 15 June)

Event Time Altitude Azimuth Distance (km) Brightness Sun altitude
Rises 00:58:52 0° 324° (NW) 3,823 6.1 -24.2°
Reaches altitude 10° 01:01:28 10° 324° (NW) 2,883 5.4 -24.1°
Maximum altitude 01:08:18 87° 237° (WSW) 1,091 2.6 -23.6°
Enters shadow 01:12:42 25° 149° (SSE) 2,048 3.8 -23.3°
